DF9PV-5 Weather Reports


time (UTC)temp
C
wind
direction
speed
KPH
gust
KPH
rain 1hr
cm
rain 24hr
cm
rain mn
cm
humidity
%
barometer
mb
20260506062023 11 0.0 0.0 0.00 1.83 0.38 94 1004.8
20260506061532 11 0.0 0.0 0.03 1.83 0.38 94 1004.8
20260506061048 11 0.0 0.0 0.03 1.83 0.38 94 1004.8
20260506060550 11 0.0 0.0 0.03 1.83 0.38 94 1004.7
20260506051051 11 0.0 0.0 0.13 1.80 0.36 95 1004.9
20260506050543 11 0.0 0.0 0.15 1.80 0.36 94 1004.9
20260506045028 11 0.0 0.0 0.15 1.80 0.36 94 1004.8
20260506044527 11 0.0 0.0 0.15 1.83 0.36 94 1004.9
20260506044020 11 0.0 0.0 0.15 1.83 0.36 94 1005.0
20260506043533 11 0.0 0.0 0.15 1.83 0.36 94 1005.0
20260506043031 11 0.0 0.0 0.13 1.80 0.33 94 1005.0
20260506042524 11 0.0 0.0 0.13 1.80 0.33 94 1004.9
20260506042036 10 0.0 0.0 0.10 1.78 0.30 94 1004.9
20260506041535 11 0.0 0.0 0.05 1.75 0.28 94 1005.0
20260506041031 11 0.0 0.0 0.03 1.70 0.23 94 1004.9
20260506040524 11 0.0 0.0 0.00 1.68 0.20 94 1005.0
20260506040021 11 0.0 0.0 0.00 1.68 0.20 94 1005.0
20260506035533 11 0.0 0.0 0.03 1.68 0.20 94 1005.0
20260506035031 10 0.0 0.0 0.03 1.68 0.20 94 1005.0
20260506034544 11 0.0 0.0 0.05 1.68 0.20 94 1005.0
20260506034023 11 0.0 0.0 0.10 1.68 0.20 94 1005.0
20260506033533 11 0.0 0.0 0.10 1.68 0.20 94 1005.0
20260506033028 11 0.0 0.0 0.10 1.68 0.20 94 1005.0
20260506032522 11 0.0 0.0 0.13 1.68 0.20 94 1005.0
20260506032052 11 0.0 0.0 0.13 1.68 0.20 94 1005.1
20260506031532 11 0.0 0.0 0.13 1.70 0.20 94 1004.9
20260506031031 11 0.0 0.0 0.13 1.70 0.20 94 1004.9
20260506030612 11 0.0 0.0 0.13 1.70 0.20 94 1005.0
20260506030041 11 0.0 0.0 0.13 1.70 0.20 94 1005.1
20260506025530 11 0.0 0.0 0.10 1.68 0.18 94 1005.2
20260506025028 11 0.0 0.0 0.10 1.68 0.18 94 1005.2
20260506024525 11 0.0 0.0 0.05 1.65 0.15 94 1005.2
20260506024020 11 0.0 0.0 0.03 1.63 0.13 94 1005.3
20260506023624 11 0.0 0.0 0.03 1.63 0.13 94 1005.3
20260506023028 11 0.0 0.0 0.03 1.63 0.13 94 1005.3
20260506022525 11 0.0 0.0 0.00 1.60 0.10 94 1005.3
20260506022037 11 0.0 0.0 0.00 1.60 0.10 94 1005.4
20260506021553 11 0.0 0.0 0.03 1.60 0.10 94 1005.4
20260506021047 11 0.0 0.0 0.03 1.60 0.10 94 1005.4
20260506020527 11 339 0.0 4.8 0.03 1.60 0.10 94 1005.4
20260506020021 11 341 0.0 4.8 0.03 1.60 0.10 94 1005.5
20260506015553 11 0.0 0.0 0.03 1.60 0.10 94 1005.6
20260506015031 11 0.0 0.0 0.03 1.60 0.10 94 1005.6
20260506014524 11 0.0 0.0 0.03 1.60 0.10 94 1005.6
20260506014021 11 0.0 0.0 0.03 1.60 0.10 93 1005.7
20260506013538 11 0.0 0.0 0.03 1.60 0.10 94 1005.8
20260506013029 11 0.0 0.0 0.03 1.60 0.10 93 1005.8
20260506012559 11 0.0 0.0 0.03 1.60 0.10 93 1005.8
20260506012021 11 0.0 0.0 0.03 1.60 0.10 93 1005.8
20260506011553 11 332 0.0 4.8 0.00 1.55 0.05 93 1005.8
20260506011029 11 340 0.0 4.8 0.00 1.55 0.05 93 1005.8
20260506010524 11 337 0.0 4.8 0.00 1.55 0.05 93 1005.8
20260506010023 11 344 0.0 8.0 0.00 1.55 0.05 93 1005.8
20260506005533 11 0.0 0.0 0.00 1.55 0.05 93 1005.8
20260506005029 11 0.0 0.0 0.03 1.55 0.05 93 1005.8
20260506004522 11 0.0 0.0 0.03 1.55 0.05 93 1005.9
20260506004021 11 0.0 0.0 0.03 1.55 0.05 93 1005.9
20260506003533 11 0.0 0.0 0.03 1.55 0.05 93 1005.9
20260506003031 11 0.0 0.0 0.03 1.55 0.05 93 1005.9
20260506002525 11 0.0 0.0 0.05 1.55 0.05 93 1005.8
20260506002021 11 0.0 0.0 0.05 1.55 0.05 93 1005.9
20260506001530 11 323 0.0 8.0 0.05 1.55 0.05 93 1005.8
20260506001029 11 0.0 0.0 0.05 1.55 0.05 93 1005.9
20260506000525 11 337 0.0 4.8 0.05 1.55 0.05 93 1006.0
20260506000021 11 0.0 0.0 0.05 1.55 0.05 93 1006.1
20260505235533 11 0.0 0.0 0.05 1.55 0.05 93 1006.1
20260505235029 11 0.0 0.0 0.03 1.52 0.03 93 1006.2
20260505234525 11 0.0 0.0 0.03 1.52 0.03 93 1006.3
20260505234200 11 0.0 0.0 0.03 1.52 0.03 93 1006.3
20260505233533 11 340 0.0 8.0 0.03 1.52 0.03 92 1006.3
20260505233042 11 346 0.0 4.8 0.03 1.52 0.03 93 1006.4
20260505232522 11 345 0.0 12.9 0.00 1.50 0.00 92 1006.4
20260505232021 11 334 1.6 8.0 0.00 1.50 0.00 92 1006.4
20260505231536 11 0.0 0.0 0.00 1.50 0.00 92 1006.3
20260505231045 11 0.0 0.0 0.00 1.50 0.00 93 1006.4
20260505230545 11 0.0 0.0 0.00 1.50 0.00 93 1006.4
20260505230021 11 0.0 0.0 0.00 1.50 0.00 92 1006.4
20260505225549 11 0.0 0.0 0.00 1.50 0.00 92 1006.4
20260505225045 11 0.0 0.0 0.00 1.50 0.00 92 1006.4
20260505224525 11 339 0.0 4.8 0.00 1.50 0.00 92 1006.4
20260505224021 11 0.0 0.0 0.03 1.50 0.00 93 1006.4
20260505223533 11 0.0 0.0 0.05 1.50 0.00 93 1006.4
20260505223029 11 0.0 0.0 0.13 1.50 0.00 93 1006.4
20260505222525 11 0.0 0.0 0.13 1.50 0.00 92 1006.4
20260505222037 11 332 0.0 4.8 0.13 1.50 0.00 92 1006.4
20260505221533 11 0.0 0.0 0.13 1.50 0.00 93 1006.4
20260505221049 11 0.0 0.0 0.13 1.50 0.00 93 1006.4
20260505220525 12 0.0 0.0 0.13 1.50 0.00 93 1006.4
20260505220037 11 0.0 0.0 0.13 1.50 0.00 93 1006.4
20260505215533 12 0.0 0.0 0.13 1.50 1.50 93 1006.4
20260505215025 12 339 0.0 4.8 0.15 1.50 1.50 93 1006.4
20260505214621 12 340 0.0 4.8 0.15 1.50 1.50 93 1006.3
20260505214024 12 355 1.6 8.0 0.13 1.47 1.47 93 1006.3
20260505213530 12 328 3.2 12.9 0.10 1.45 1.45 93 1006.3
20260505213029 12 336 0.0 4.8 0.05 1.37 1.37 93 1006.5
20260505212541 12 342 0.0 8.0 0.05 1.37 1.37 93 1006.5
20260505212041 12 336 1.6 8.0 0.05 1.37 1.37 93 1006.6
20260505211533 12 343 0.0 4.8 0.05 1.37 1.37 93 1006.8
20260505211029 12 341 0.0 4.8 0.05 1.37 1.37 92 1006.8
20260505210605 12 343 0.0 4.8 0.05 1.37 1.37 93 1006.8
20260505210022 12 345 0.0 4.8 0.05 1.37 1.37 92 1006.8
20260505205533 12 0.0 0.0 0.05 1.37 1.37 92 1006.8
20260505205052 12 0.0 0.0 0.03 1.35 1.35 92 1006.8
20260505204522 12 0.0 0.0 0.03 1.35 1.35 92 1006.8
20260505204024 12 0.0 0.0 0.03 1.35 1.35 92 1006.9
20260505203533 12 0.0 0.0 0.05 1.35 1.35 92 1006.8
20260505203026 12 0.0 0.0 0.03 1.32 1.32 92 1006.9
20260505202528 12 0.0 0.0 0.03 1.32 1.32 93 1006.8
20260505202021 12 0.0 0.0 0.05 1.32 1.32 93 1006.7
20260505201530 12 0.0 0.0 0.13 1.32 1.32 93 1006.6
20260505201029 12 340 1.6 8.0 0.15 1.32 1.32 93 1006.6
20260505200541 12 341 0.0 8.0 0.15 1.32 1.32 93 1006.6
20260505200021 12 0.0 0.0 0.15 1.32 1.32 93 1006.5
20260505195533 12 0.0 0.0 0.15 1.32 1.32 93 1006.5
20260505195029 12 342 0.0 4.8 0.20 1.32 1.32 93 1006.5
20260505194528 12 0.0 0.0 0.30 1.32 1.32 93 1006.4
20260505194022 12 0.0 0.0 0.30 1.32 1.32 93 1006.3
20260505193549 12 343 0.0 4.8 0.30 1.30 1.30 93 1006.3
20260505193042 13 344 0.0 4.8 0.30 1.30 1.30 93 1006.3
20260505192522 13 342 0.0 8.0 0.30 1.30 1.30 93 1006.3
20260505192057 13 0.0 0.0 0.28 1.27 1.27 93 1006.3
20260505191533 13 358 0.0 4.8 0.23 1.19 1.19 93 1006.2
20260505191026 13 0.0 0.0 0.20 1.17 1.17 93 1006.3
20260505190525 13 347 0.0 8.0 0.23 1.17 1.17 93 1006.2
20260505190021 13 0.0 0.0 0.23 1.17 1.17 93 1006.1
20260505185533 13 0.0 0.0 0.28 1.17 1.17 93 1006.1
20260505185106 13 342 1.6 12.9 0.20 1.12 1.12 92 1006.1
20260505184525 14 0 0.0 8.0 0.13 1.02 1.02 92 1006.1
20260505184021 14 0.0 0.0 0.15 1.02 1.02 92 1006.2
20260505183549 14 0.0 0.0 0.13 0.99 0.99 92 1006.1
20260505183029 14 0.0 0.0 0.13 0.99 0.99 92 1006.1
20260505182540 14 0.0 0.0 0.15 0.99 0.99 92 1006.2
20260505182022 14 0.0 0.0 0.15 0.99 0.99 91 1006.2
20260505181533 14 0.0 0.0 0.13 0.97 0.97 91 1006.2
20260505181042 14 0.0 0.0 0.13 0.97 0.97 91 1006.2
20260505180542 14 0.0 0.0 0.10 0.94 0.94 91 1006.3
20260505180037 14 0.0 0.0 0.13 0.94 0.94 91 1006.3
20260505175533 14 0.0 0.0 0.10 0.89 0.89 91 1006.3
20260505175026 14 0.0 0.0 0.10 0.89 0.89 91 1006.3
20260505174528 14 0.0 0.0 0.13 0.89 0.89 91 1006.4
20260505174041 14 0.0 0.0 0.10 0.86 0.86 91 1006.4
20260505173530 14 6 0.0 4.8 0.10 0.86 0.86 91 1006.4
20260505173032 15 1 0.0 4.8 0.10 0.86 0.86 91 1006.4
20260505172525 15 0.0 0.0 0.05 0.84 0.84 91 1006.4
20260505172021 15 0.0 0.0 0.05 0.84 0.84 91 1006.4
20260505171612 15 0.0 0.0 0.10 0.84 0.84 91 1006.4
20260505171029 15 0.0 0.0 0.10 0.84 0.84 91 1006.4
20260505170525 15 7 0.0 4.8 0.10 0.84 0.84 90 1006.4
20260505170022 15 0.0 0.0 0.05 0.81 0.81 90 1006.4
20260505165534 15 0.0 0.0 0.05 0.81 0.81 90 1006.4
20260505165029 15 0.0 0.0 0.05 0.81 0.81 90 1006.5
20260505164522 15 0.0 0.0 0.03 0.79 0.79 89 1006.5
20260505164021 15 3 0.0 4.8 0.05 0.79 0.79 89 1006.5
20260505163536 15 1 0.0 8.0 0.05 0.79 0.79 89 1006.6
20260505163025 15 0.0 0.0 0.05 0.81 0.79 89 1006.6
20260505162525 15 0.0 0.0 0.05 0.81 0.79 89 1006.6
20260505162021 15 0.0 0.0 0.10 0.81 0.79 88 1006.6
20260505161550 15 0.0 0.0 0.10 0.79 0.76 89 1006.6
20260505161050 15 0.0 0.0 0.15 0.79 0.76 89 1006.6
20260505160525 15 0.0 0.0 0.18 0.79 0.76 89 1006.7
20260505153029 15 0.0 0.0 0.43 0.79 0.71 91 1006.7
20260505152541 15 353 0.0 4.8 0.43 0.79 0.71 91 1006.8
20260505152024 15 357 0.0 4.8 0.43 0.76 0.69 91 1006.8
20260505151533 15 338 0.0 4.8 0.38 0.71 0.66 90 1006.8
20260505151046 15 0.0 0.0 0.33 0.66 0.61 89 1006.8
20260505150526 15 0.0 0.0 0.30 0.64 0.56 90 1006.8
20260505140542 15 323 3.2 8.0 0.20 0.38 0.28 87 1006.8
20260505130122 17 336 0.0 4.8 0.00 0.36 0.05 77 1007.2
20260505125030 17 342 1.6 12.9 0.00 0.36 0.05 75 1007.3
20260505124522 17 341 0.0 4.8 0.00 0.36 0.05 74 1007.3
20260505124022 17 324 0.0 4.8 0.00 0.36 0.05 74 1007.3
20260505123534 17 328 0.0 4.8 0.00 0.36 0.05 73 1007.3
20260505123028 17 0.0 0.0 0.00 0.36 0.05 71 1007.3
20260505122526 18 0.0 0.0 0.00 0.36 0.05 71 1007.3
20260505122022 18 337 0.0 4.8 0.00 0.36 0.05 71 1007.3
20260505121530 18 321 1.6 8.0 0.00 0.36 0.05 70 1007.4
20260505121030 18 320 3.2 12.9 0.00 0.36 0.05 69 1007.4
20260505120542 18 327 1.6 8.0 0.00 0.36 0.05 69 1007.5
20260505120022 18 320 3.2 8.0 0.00 0.36 0.05 70 1007.5
20260505115617 18 324 3.2 12.9 0.00 0.36 0.05 69 1007.5
20260505115030 19 325 3.2 16.1 0.00 0.36 0.05 67 1007.6
20260505114526 19 323 1.6 8.0 0.00 0.36 0.05 65 1007.6
20260505114022 19 335 1.6 8.0 0.00 0.36 0.05 65 1007.7
20260505113534 20 342 0.0 4.8 0.00 0.36 0.05 66 1007.7
20260505113050 20 343 0.0 4.8 0.00 0.36 0.05 65 1007.7
20260505112521 20 339 0.0 8.0 0.00 0.36 0.05 65 1007.7
20260505112038 20 321 1.6 8.0 0.00 0.36 0.05 60 1007.7
20260505111534 20 10 1.6 8.0 0.00 0.36 0.05 60 1007.8
20260505111026 19 3 0.0 4.8 0.00 0.36 0.05 62 1007.9
20260505110526 19 1 0.0 4.8 0.00 0.36 0.05 62 1007.9
20260505102022 20 328 1.6 8.0 0.00 0.36 0.05 60 1008.2
20260505101555 20 5 0.0 8.0 0.00 0.36 0.05 61 1008.3
20260505101033 21 357 1.6 16.1 0.00 0.36 0.05 59 1008.3
20260505100521 20 5 1.6 8.0 0.00 0.36 0.05 59 1008.3
20260505100022 20 0.0 0.0 0.00 0.36 0.05 61 1008.3
20260505095534 20 19 4.8 24.1 0.00 0.36 0.05 61 1008.4
20260505095025 20 342 0.0 4.8 0.00 0.36 0.05 61 1008.4
20260505094526 20 10 3.2 12.9 0.00 0.36 0.05 61 1008.5
20260505094045 20 0.0 0.0 0.00 0.36 0.05 62 1008.4
20260505093530 20 0.0 0.0 0.00 0.36 0.05 63 1008.5
20260505093030 19 351 0.0 4.8 0.00 0.36 0.05 65 1008.6
20260505092526 18 11 3.2 12.9 0.00 0.36 0.05 64 1008.7
20260505092022 19 12 1.6 8.0 0.00 0.36 0.05 66 1008.6
20260505091534 18 11 1.6 8.0 0.00 0.36 0.05 67 1008.6
20260505091030 18 351 0.0 8.0 0.00 0.36 0.05 68 1008.6
20260505090546 18 18 1.6 12.9 0.00 0.36 0.05 68 1008.7
20260505090105 18 15 1.6 12.9 0.00 0.36 0.05 68 1008.7
20260505085534 18 0.0 0.0 0.00 0.36 0.05 69 1008.7
20260505085033 18 0.0 0.0 0.00 0.36 0.05 70 1008.8
20260505084522 18 0.0 0.0 0.00 0.36 0.05 69 1008.9
20260505084022 17 0.0 0.0 0.00 0.36 0.05 69 1008.9
20260505083549 17 0.0 0.0 0.00 0.36 0.05 71 1009.0
20260505083025 17 22 0.0 8.0 0.00 0.36 0.05 72 1009.0
20260505082526 17 7 0.0 8.0 0.00 0.36 0.05 74 1009.0
20260505082042 17 8 0.0 4.8 0.00 0.36 0.05 74 1009.0
20260505081529 17 14 1.6 8.0 0.00 0.36 0.05 76 1009.1
20260505081050 17 7 1.6 8.0 0.00 0.36 0.05 75 1009.1
20260505080529 17 14 1.6 8.0 0.00 0.36 0.05 73 1009.0
20260505080022 17 343 0.0 4.8 0.00 0.36 0.05 72 1009.1
20260505075534 17 9 0.0 8.0 0.00 0.36 0.05 73 1009.1
20260505075030 18 342 0.0 4.8 0.00 0.36 0.05 72 1009.1
20260505074526 17 12 0.0 8.0 0.00 0.36 0.05 74 1009.1
20260505074022 17 10 1.6 8.0 0.00 0.36 0.05 76 1009.2
20260505073537 16 0.0 0.0 0.00 0.36 0.05 81 1009.3
20260505073030 15 12 0.0 8.0 0.00 0.36 0.05 83 1009.3
20260505072541 15 0.0 0.0 0.00 0.36 0.05 84 1009.3
20260505072022 15 0.0 0.0 0.00 0.36 0.05 85 1009.3
20260505071534 15 0.0 0.0 0.00 0.36 0.05 86 1009.4
20260505071045 15 331 0.0 4.8 0.00 0.36 0.05 86 1009.4
20260505070546 15 0.0 0.0 0.00 0.36 0.05 87 1009.3